When you browse on this site, cookies collect data to enhance your experience and personalize the content and advertising you see.
Visit our Privacy Policy to learn more. By continuing to use the site, you agree to this use of cookies and data.

Hourly Weather Dinagepoor

Today, 11 July, Saturday

Time Temperature Precipitation Wind Pressure Humidity
00:00 +30°C° 0 mm 3 mps 747 mmHg 85%
01:00 +30°C° 0.5 mm 2 mps 747 mmHg 86%
02:00 +29°C° 0.5 mm 1 mps 746 mmHg 87%
03:00 +29°C° 0.5 mm 1 mps 746 mmHg 87%
04:00 +29°C° 0.2 mm 1 mps 746 mmHg 87%
05:00 +29°C° 0.2 mm 1 mps 746 mmHg 86%
06:00 +29°C° 0.2 mm 1 mps 746 mmHg 86%
07:00 +30°C° 0.6 mm 1 mps 746 mmHg 83%
08:00 +31°C° 0.6 mm 2 mps 747 mmHg 81%
09:00 +31°C° 0.6 mm 2 mps 747 mmHg 78%
10:00 +33°C° 1.3 mm 3 mps 747 mmHg 76%
11:00 +33°C° 1.3 mm 4 mps 747 mmHg 74%
12:00 +33°C° 1.3 mm 5 mps 747 mmHg 72%
13:00 +34°C° 0.5 mm 4 mps 747 mmHg 70%
14:00 +34°C° 0.5 mm 4 mps 746 mmHg 69%
15:00 +34°C° 0.5 mm 3 mps 746 mmHg 67%
16:00 +34°C° 1.1 mm 3 mps 745 mmHg 68%
17:00 +34°C° 1.1 mm 2 mps 745 mmHg 69%
18:00 +33°C° 1.1 mm 1 mps 745 mmHg 71%
19:00 +32°C° 1.8 mm 1 mps 746 mmHg 74%
20:00 +31°C° 1.8 mm 1 mps 746 mmHg 78%
21:00 +31°C° 1.8 mm 2 mps 747 mmHg 82%
22:00 +31°C° 1.4 mm 2 mps 747 mmHg 83%
23:00 +30°C° 1.4 mm 3 mps 747 mmHg 83%

Tomorrow, 12 July, Sunday

Time Temperature Precipitation Wind Pressure Humidity
00:00 +30°C° 1.4 mm 3 mps 747 mmHg 84%
01:00 +30°C° 0.3 mm 2 mps 746 mmHg 85%
02:00 +30°C° 0.3 mm 2 mps 746 mmHg 86%
03:00 +29°C° 0.3 mm 1 mps 746 mmHg 88%
04:00 +29°C° 1 mm 1 mps 746 mmHg 88%
05:00 +29°C° 1 mm 1 mps 746 mmHg 88%
06:00 +29°C° 1 mm 2 mps 746 mmHg 89%
07:00 +30°C° 1.8 mm 2 mps 746 mmHg 86%
08:00 +31°C° 1.8 mm 2 mps 747 mmHg 83%
09:00 +31°C° 1.8 mm 2 mps 747 mmHg 80%
10:00 +31°C° 1 mm 1 mps 747 mmHg 81%
11:00 +31°C° 1 mm 1 mps 747 mmHg 82%
12:00 +31°C° 1 mm 1 mps 746 mmHg 83%
13:00 +32°C° 0 mm 1 mps 746 mmHg 77%
14:00 +33°C° 0 mm 1 mps 746 mmHg 71%
15:00 +34°C° 0 mm 1 mps 746 mmHg 66%
16:00 +34°C° 0.5 mm 2 mps 745 mmHg 69%
17:00 +34°C° 0.5 mm 2 mps 745 mmHg 73%
18:00 +33°C° 0.5 mm 3 mps 745 mmHg 76%
19:00 +32°C° 1 mm 4 mps 746 mmHg 78%
20:00 +32°C° 1 mm 4 mps 746 mmHg 80%
21:00 +30°C° 1 mm 5 mps 747 mmHg 82%
22:00 +30°C° 0.7 mm 5 mps 747 mmHg 85%
23:00 +29°C° 0.7 mm 5 mps 747 mmHg 87%

Day after tomorrow, 13 July, Monday

Time Temperature Precipitation Wind Pressure Humidity
00:00 +29°C° 0.7 mm 4 mps 747 mmHg 90%
01:00 +29°C° 0.9 mm 4 mps 747 mmHg 90%
02:00 +29°C° 0.9 mm 3 mps 747 mmHg 90%
03:00 +29°C° 0.9 mm 3 mps 746 mmHg 91%
04:00 +28°C° 1.5 mm 3 mps 746 mmHg 91%
05:00 +28°C° 1.5 mm 3 mps 746 mmHg 92%
06:00 +28°C° 1.5 mm 3 mps 746 mmHg 93%
07:00 +28°C° 0.5 mm 3 mps 747 mmHg 92%
08:00 +29°C° 0.5 mm 3 mps 748 mmHg 91%
09:00 +29°C° 0.5 mm 3 mps 748 mmHg 90%
10:00 +29°C° 0.2 mm 3 mps 748 mmHg 87%
11:00 +30°C° 0.2 mm 3 mps 748 mmHg 84%
12:00 +31°C° 0.2 mm 3 mps 748 mmHg 82%
13:00 +31°C° 0.3 mm 3 mps 748 mmHg 80%
14:00 +31°C° 0.3 mm 3 mps 748 mmHg 79%
15:00 +31°C° 0.3 mm 3 mps 747 mmHg 77%
16:00 +31°C° 2.4 mm 3 mps 747 mmHg 79%
17:00 +31°C° 2.4 mm 3 mps 748 mmHg 80%
18:00 +32°C° 2.4 mm 4 mps 748 mmHg 81%
19:00 +32°C° 3.4 mm 4 mps 748 mmHg 83%
20:00 +30°C° 3.4 mm 5 mps 749 mmHg 85%
21:00 +30°C° 3.4 mm 6 mps 750 mmHg 86%
22:00 +29°C° 2 mm 6 mps 750 mmHg 87%
23:00 +29°C° 2 mm 6 mps 750 mmHg 87%

14 July, Tuesday

Time Temperature Precipitation Wind Pressure Humidity
00:00 +29°C° 2 mm 5 mps 750 mmHg 88%
01:00 +29°C° 0.2 mm 5 mps 750 mmHg 88%
02:00 +28°C° 0.2 mm 5 mps 749 mmHg 89%
03:00 +28°C° 0.2 mm 5 mps 749 mmHg 89%
04:00 +28°C° 0.1 mm 4 mps 749 mmHg 89%
05:00 +28°C° 0.1 mm 4 mps 750 mmHg 89%
06:00 +28°C° 0.1 mm 4 mps 750 mmHg 89%
07:00 +29°C° 0.1 mm 4 mps 750 mmHg 84%
08:00 +30°C° 0.1 mm 4 mps 751 mmHg 80%
09:00 +32°C° 0.1 mm 4 mps 751 mmHg 75%
10:00 +33°C° 0.8 mm 4 mps 751 mmHg 73%
11:00 +33°C° 0.8 mm 5 mps 751 mmHg 72%
12:00 +34°C° 0.8 mm 5 mps 751 mmHg 70%
13:00 +34°C° 1.2 mm 5 mps 751 mmHg 70%
14:00 +34°C° 1.2 mm 5 mps 750 mmHg 70%
15:00 +34°C° 1.2 mm 5 mps 750 mmHg 70%
16:00 +34°C° 1.2 mm 5 mps 750 mmHg 71%
17:00 +33°C° 1.2 mm 5 mps 749 mmHg 73%
18:00 +33°C° 1.2 mm 5 mps 749 mmHg 75%
19:00 +32°C° 0.5 mm 5 mps 750 mmHg 79%
20:00 +30°C° 0.5 mm 5 mps 750 mmHg 82%
21:00 +29°C° 0.5 mm 5 mps 751 mmHg 86%
22:00 +29°C° 0.7 mm 5 mps 751 mmHg 87%
23:00 +29°C° 0.7 mm 5 mps 751 mmHg 88%

15 July, Wednesday

Time Temperature Precipitation Wind Pressure Humidity
00:00 +28°C° 0.7 mm 4 mps 751 mmHg 89%
01:00 +28°C° 0.5 mm 4 mps 751 mmHg 89%
02:00 +28°C° 0.5 mm 4 mps 751 mmHg 90%
03:00 +28°C° 0.5 mm 4 mps 750 mmHg 90%
04:00 +28°C° 0 mm 3 mps 750 mmHg 90%
05:00 +28°C° 0 mm 3 mps 750 mmHg 91%
06:00 +28°C° 0 mm 3 mps 750 mmHg 91%
07:00 +29°C° 0.2 mm 3 mps 750 mmHg 88%
08:00 +29°C° 0.2 mm 3 mps 751 mmHg 85%
09:00 +30°C° 0.2 mm 3 mps 751 mmHg 83%
10:00 +31°C° 0.5 mm 3 mps 751 mmHg 77%
11:00 +33°C° 0.5 mm 3 mps 751 mmHg 71%
12:00 +34°C° 0.5 mm 3 mps 751 mmHg 66%
13:00 +35°C° 1.2 mm 2 mps 750 mmHg 64%
14:00 +35°C° 1.2 mm 2 mps 749 mmHg 62%
15:00 +35°C° 1.2 mm 2 mps 749 mmHg 61%
16:00 +34°C° 0.5 mm 1 mps 748 mmHg 61%
17:00 +34°C° 0.5 mm 1 mps 748 mmHg 62%
18:00 +34°C° 0.5 mm 1 mps 747 mmHg 63%
19:00 +33°C° 0.2 mm 1 mps 748 mmHg 67%
20:00 +32°C° 0.2 mm 1 mps 748 mmHg 72%
21:00 +32°C° 0.2 mm 1 mps 748 mmHg 76%
22:00 +31°C° 0.2 mm 2 mps 749 mmHg 78%
23:00 +31°C° 0.2 mm 2 mps 749 mmHg 80%

16 July, Thursday

Time Temperature Precipitation Wind Pressure Humidity
00:00 +31°C° 0.2 mm 2 mps 749 mmHg 81%
01:00 +30°C° 0.6 mm 2 mps 748 mmHg 81%
02:00 +30°C° 0.6 mm 3 mps 748 mmHg 82%
03:00 +30°C° 0.6 mm 3 mps 748 mmHg 82%
04:00 +30°C° 0.1 mm 3 mps 748 mmHg 83%
05:00 +29°C° 0.1 mm 3 mps 748 mmHg 84%
06:00 +29°C° 0.1 mm 2 mps 748 mmHg 85%
07:00 +30°C° 0.1 mm 3 mps 748 mmHg 80%
08:00 +31°C° 0.1 mm 3 mps 748 mmHg 74%
09:00 +34°C° 0.1 mm 3 mps 749 mmHg 68%
10:00 +34°C° 0.8 mm 3 mps 748 mmHg 64%
11:00 +35°C° 0.8 mm 2 mps 748 mmHg 60%
12:00 +36°C° 0.8 mm 2 mps 748 mmHg 56%
13:00 +36°C° 1 mm 2 mps 747 mmHg 56%
14:00 +36°C° 1 mm 2 mps 747 mmHg 56%
15:00 +35°C° 1 mm 1 mps 746 mmHg 57%
16:00 +36°C° 0.4 mm 2 mps 746 mmHg 60%
17:00 +35°C° 0.4 mm 2 mps 746 mmHg 64%
18:00 +35°C° 0.4 mm 3 mps 745 mmHg 68%
19:00 +34°C° 0 mm 3 mps 746 mmHg 71%
20:00 +32°C° 0 mm 2 mps 747 mmHg 74%
21:00 +32°C° 0 mm 2 mps 747 mmHg 77%
22:00 +31°C° 0.4 mm 2 mps 747 mmHg 78%
23:00 +31°C° 0.4 mm 2 mps 748 mmHg 79%
Show more